Temperature
13 14 14 14 14 13 13 12 12 12 12 13 12 12 12 12 12 12 13 13 13 13 13 13 13 14 14 14 14 14 14 14 14 14 13 13 13 13 13 12 12 12 12 12
13 14 13 13 13 13 13 13 12 12 12 12 12 12 11 11 11 11 12 12 12 12 13 13 13 13 13 13 13 13 13 13 13 13 13 13 13 12 12 12 12 12 12 11
12 12 13 12 12 12 12 12 12 12 12 11 11 11 11 11 11 11 11 12 12 12 12 12 12 12 12 12 13 13 13 13 13 13 12 12 12 12 12 12 12 12 11 11
10 12 13 13 12 12 12 12 11 11 11 11 11 11 11 11 11 11 11 11 11 11 11 12 12 12 12 12 12 12 12 12 12 12 12 12 12 12 11 11 11 11 11 11
9 11 11 12 12 11 11 11 11 10 10 10 10 10 10 11 11 11 11 11 11 11 11 11 11 11 11 11 12 12 12 12 12 11 11 11 11 11 11 11 11 11 11 11
9 11 12 12 12 12 12 11 10 10 10 9 9 8 9 11 11 11 11 11 11 11 11 11 11 11 11 11 11 11 11 11 11 11 11 11 11 11 11 10 10 10 10 10
9 10 10 11 11 12 11 11 11 10 10 9 9 9 10 10 10 11 11 10 10 10 10 10 10 10 10 10 10 10 10 10 10 10 10 10 10 10 10 10 10 10 10 10
8 10 10 10 10 10 10 11 11 11 10 10 10 10 10 10 10 10 10 10 10 10 10 10 9 9 9 9 10 10 10 10 10 10 10 10 9 9 9 9 9 9 9 9
9 10 10 10 10 11 11 11 11 11 10 10 10 10 10 10 10 10 9 9 9 9 9 9 9 9 9 9 9 9 9 9 9 9 9 9 9 9 9 9 9 9 9 9
8 8 9 10 10 11 11 11 11 11 10 10 10 10 10 10 9 9 9 9 9 9 8 8 8 8 8 8 8 8 8 9 9 9 8 8 8 8 8 8 8 8 8 8
7 8 9 10 10 10 10 10 10 10 10 10 10 10 10 9 9 9 9 8 8 8 8 8 8 8 8 8 8 8 8 8 8 8 8 8 8 8 8 8 7 7 7 7
8 8 8 9 10 10 10 10 10 10 9 10 10 9 9 9 9 9 8 8 8 8 8 8 7 8 8 7 7 7 7 7 7 7 7 7 7 7 7 7 7 7 7 7
9 10 9 9 9 9 9 9 9 9 9 9 9 9 9 9 8 8 8 8 8 8 7 7 7 7 7 7 7 7 7 7 7 7 7 7 6 6 6 6 6 6 6 6
9 9 8 9 9 9 9 9 9 9 9 9 9 8 8 8 8 8 8 7 7 7 7 7 7 7 7 7 7 6 6 6 6 6 6 6 6 6 6 6 6 6 6 6
8 8 8 8 8 8 8 8 8 8 8 8 8 8 8 8 8 7 7 7 7 7 7 7 7 7 6 6 6 6 6 6 6 6 6 5 5 5 5 5 5 5 5 5
8 8 8 8 7 7 7 7 7 7 7 7 7 7 7 7 7 7 6 6 6 6 6 6 6 6 6 6 5 5 5 5 5 5 5 5 5 5 5 5 4 4 4 4
7 7 7 7 7 7 7 7 7 7 7 7 7 7 7 6 6 6 6 6 6 5 5 5 5 5 5 5 5 5 5 5 5 5 4 4 4 4 4 4 4 4 4 4
7 7 7 7 7 6 6 6 6 6 6 6 6 6 6 6 5 5 5 5 5 5 5 4 4 4 4 4 4 4 4 4 4 4 4 4 4 4 4 4 4 4 4 3
7 7 6 6 6 6 6 6 6 6 6 6 5 5 5 5 5 5 4 4 4 4 4 4 4 4 4 4 4 4 4 4 4 3 3 3 3 3 3 3 3 3 3 3
6 6 6 6 6 6 5 5 5 5 5 5 5 5 5 4 4 4 3 3 3 3 3 3 3 3 3 3 3 3 3 3 3 3 3 3 3 3 3 3 3 3 3 3
6 6 5 5 5 5 5 5 5 5 5 5 5 4 4 4 3 3 3 3 3 3 2 3 3 3 3 3 3 3 3 3 3 3 3 2 2 3 3 3 3 2 2 2
5 5 5 5 5 5 5 5 5 4 4 4 4 4 3 3 3 3 3 2 2 2 2 2 2 2 2 3 3 2 2 2 2 2 2 2 2 2 2 2 2 2 2 2
5 5 5 4 4 4 4 4 4 4 4 4 4 3 3 3 2 2 2 2 2 2 2 2 2 2 2 2 2 2 2 2 2 2 2 2 2 2 2 2 2 2 2 2
4 4 4 4 4 4 4 4 4 4 3 3 3 3 2 2 2 2 2 2 2 1 1 1 1 2 2 2 2 2 2 2 1 1 1 1 1 1 1 1 1 1 1 1
4 4 4 4 3 3 3 3 3 3 3 2 2 2 2 2 2 2 1 1 1 1 1 1 1 1 1 1 1 1 1 1 1 1 1 1 1 1 1 1 1 1 1 1
4 4 3 3 3 3 3 3 2 2 2 2 1 1 1 1 1 1 1 1 1 1 1 1 1 0 0 0 0 1 1 1 1 1 1 1 1 1 1 1 1 1 1 1
3 3 3 3 3 2 2 2 2 2 2 1 1 1 1 1 0 1 0 0 0 0 0 0 0 0 0 0 0 0 0 0 0 0 0 0 0 0 0 0 0 0 0 0
Wind_Speed
4 4 2 3 4 4 6 7 7 6 6 8 5 4 3 3 3 4 4 4 3 2 2 2 2 2 2 2 1 1 1 2 3 3 2 2 3 3 3 4 4 4 4 5
2 2 1 2 4 4 5 4 5 4 6 4 3 1 2 2 2 3 3 3 3 3 3 3 3 3 2 2 2 1 2 3 2 1 1 2 2 2 3 3 4 3 4 5
3 3 3 3 4 4 4 3 5 5 5 1 2 2 2 1 2 2 2 3 3 3 2 2 2 2 2 2 2 1 1 2 2 2 2 2 2 2 3 4 3 3 4 4
1 1 4 5 2 2 2 2 1 1 1 1 2 2 1 1 1 2 2 2 2 2 3 3 2 2 2 2 2 1 2 2 2 2 2 2 1 2 3 3 3 4 4 4
2 2 6 4 1 1 2 3 1 0 2 2 3 3 3 2 1 2 2 2 2 2 2 2 3 2 2 3 3 2 3 3 3 2 2 2 2 3 3 3 4 4 4 4
3 2 5 4 3 2 1 2 2 0 0 1 3 2 4 4 3 3 3 2 2 2 2 2 3 2 2 2 2 3 3 4 3 2 2 3 4 3 3 3 4 4 4 4
3 4 6 4 3 2 2 5 3 2 2 2 2 4 4 3 3 2 3 3 2 2 2 3 3 1 1 2 3 4 3 3 3 2 2 3 2 2 2 2 2 3 3 3
3 3 6 2 2 3 4 3 2 2 2 2 3 2 2 1 2 2 3 3 2 2 3 4 2 1 2 4 4 3 2 2 3 2 2 2 1 2 2 2 2 3 2 3
6 6 3 1 2 3 1 1 2 2 3 2 2 2 2 2 2 2 3 3 3 2 4 4 3 2 3 5 4 3 2 2 3 2 1 1 1 1 1 2 2 3 3 3
3 5 3 3 2 2 2 2 3 3 3 2 3 3 3 4 3 3 3 3 2 2 3 5 5 3 3 4 3 2 2 2 2 2 2 2 1 1 1 2 2 3 3 4
4 4 4 4 3 3 3 2 2 2 2 2 3 4 4 4 4 4 3 3 2 2 3 5 5 4 4 3 2 2 2 2 2 2 1 2 2 2 2 3 4 4 4 4
6 5 4 5 4 3 2 3 3 2 3 3 3 4 4 4 4 3 4 3 3 3 3 4 4 4 4 3 2 1 1 2 2 1 1 1 2 3 3 3 4 5 4 4
5 3 3 4 3 2 3 4 3 3 4 4 4 3 3 4 4 3 4 4 4 4 4 4 4 4 4 3 2 2 2 2 2 2 2 2 2 2 3 4 4 3 4 4
2 1 2 3 3 3 3 3 3 3 4 3 3 3 3 3 3 3 4 4 4 4 4 3 3 5 4 3 2 2 2 3 3 2 3 3 3 3 2 3 3 3 4 4
3 2 3 3 2 2 2 2 3 3 3 3 2 2 2 2 3 4 4 3 3 3 3 3 4 5 4 2 2 2 2 2 2 2 2 2 2 2 3 3 3 3 3 4
3 2 2 2 3 3 2 2 3 4 4 3 3 3 3 2 3 3 3 2 2 3 4 4 4 4 3 3 2 2 3 5 4 2 2 2 2 2 3 3 3 3 3 3
1 2 3 3 4 4 4 4 4 4 4 3 3 3 2 2 2 3 3 3 3 3 3 3 4 4 3 3 2 2 2 3 5 3 2 3 3 3 3 3 4 4 4 3
5 5 5 5 4 4 4 4 3 3 3 3 3 2 1 1 2 4 4 3 3 4 4 4 4 4 3 3 2 2 2 2 2 3 3 3 3 3 3 3 3 4 3 3
2 3 3 3 3 3 3 4 3 3 3 2 1 2 2 2 3 3 3 3 3 4 5 5 6 5 4 4 4 2 2 2 2 3 3 3 3 2 2 3 3 3 3 3
2 2 2 2 2 2 3 3 2 2 2 2 1 2 2 2 2 2 2 3 3 4 5 6 5 4 4 4 4 2 2 2 3 3 3 3 3 3 3 3 3 3 3 3
2 2 2 2 2 3 3 2 2 3 3 2 2 2 3 3 2 1 2 4 5 4 5 7 4 4 3 3 4 2 2 2 3 3 3 3 3 3 3 3 3 3 3 3
2 2 2 2 2 3 3 2 2 3 3 3 2 2 2 3 3 2 3 4 4 6 5 3 3 5 5 4 2 2 2 2 3 2 2 3 3 3 3 3 3 3 3 3
2 2 2 2 3 3 2 2 2 2 3 3 3 3 3 3 3 3 4 4 3 6 4 3 5 7 7 4 2 2 2 3 3 3 3 3 3 3 3 4 4 3 3 3
2 2 3 2 1 1 2 3 2 2 2 2 2 2 2 2 3 3 3 5 5 6 4 5 7 7 6 3 2 2 3 3 3 3 3 3 3 3 3 3 3 3 3 4
2 2 2 1 2 2 3 2 1 1 1 2 2 3 2 2 3 3 3 3 5 5 4 6 7 7 4 3 3 3 3 3 3 3 2 3 3 3 4 4 4 4 4 3
2 2 2 3 3 2 1 1 1 1 1 2 2 2 2 2 2 2 2 3 4 5 4 4 4 5 3 3 3 3 3 4 4 4 3 3 4 4 4 4 4 4 3 3
1 1 1 1 1 1 1 1 2 2 2 2 2 2 2 2 2 2 3 3 3 4 3 3 3 3 3 3 3 3 3 3 3 3 3 3 3 3 4 4 3 3 3 3
Wind_Direction
242 255 218 236 241 212 205 205 205 229 234 261 274 290 303 321 347 8 8 8 7 4 358 358 357 347 336 315 304 253 217 224 239 244 242 230 218 213 204 200 211 206 204 210
293 282 209 266 268 236 229 221 214 233 265 265 290 317 337 346 7 12 351 353 356 2 5 353 339 330 336 329 312 256 226 239 248 250 244 232 227 217 203 204 211 211 210 214
263 300 351 279 250 224 232 228 190 219 247 291 332 320 309 305 352 352 342 344 347 336 320 317 316 314 329 320 331 339 295 280 260 239 238 244 232 210 212 214 211 213 219 216
204 35 248 252 262 190 215 264 231 227 280 265 271 295 304 268 287 319 335 341 333 330 323 318 325 338 340 349 5 360 336 316 298 268 250 244 221 228 231 223 216 218 222 223
141 228 276 290 287 177 200 269 258 293 336 341 355 26 351 330 301 276 292 299 298 299 297 314 330 339 11 8 3 357 333 313 292 273 260 246 240 242 237 223 226 225 223 222
144 194 247 260 293 289 132 276 298 141 112 15 47 13 294 310 312 312 317 326 331 330 337 342 329 348 32 354 348 323 309 303 290 266 248 243 243 247 250 233 232 228 230 227
179 222 259 275 305 71 137 259 274 200 192 182 204 232 260 289 312 313 316 321 338 346 336 314 317 343 335 316 296 292 300 302 297 275 253 247 251 255 251 238 228 232 237 240
166 211 256 298 95 164 228 268 214 213 219 227 263 282 283 290 311 327 324 326 336 343 321 310 314 332 315 296 292 306 308 311 308 296 280 281 255 267 255 223 216 233 243 258
193 217 255 278 234 269 246 248 248 225 243 240 256 275 278 280 289 307 310 316 325 328 321 317 311 295 286 292 301 308 318 312 307 308 306 296 267 257 261 231 221 235 237 246
246 264 277 297 307 311 303 277 280 260 240 220 247 253 261 263 269 276 285 294 302 321 321 311 309 302 280 290 302 309 308 302 300 303 309 312 287 241 232 240 247 247 242 246
250 276 313 309 295 288 309 323 326 323 283 235 233 250 246 250 256 261 272 278 269 276 292 295 299 302 303 301 301 309 305 301 295 285 287 290 289 271 250 245 239 242 243 237
233 233 222 258 268 267 274 282 276 290 304 292 244 238 248 250 256 263 274 282 282 279 279 289 294 294 298 295 276 260 295 299 288 278 278 277 286 311 315 290 287 278 264 250
241 258 249 272 285 274 267 273 270 264 263 272 272 252 246 254 259 265 270 270 269 268 270 277 285 286 289 285 276 254 256 274 279 269 266 268 271 276 301 318 314 299 284 270
257 269 286 281 283 294 300 297 296 300 291 271 263 264 257 257 264 265 264 265 269 274 278 278 281 285 289 286 282 275 269 278 281 260 256 257 257 263 267 278 299 305 295 277
261 244 246 276 288 313 330 336 329 314 312 307 292 281 272 265 264 269 275 282 285 286 287 289 289 292 296 288 274 272 274 270 266 264 263 259 263 267 265 263 269 283 300 297
273 277 267 275 274 291 312 308 292 285 287 286 292 295 289 277 279 289 295 298 295 289 290 292 288 291 293 280 271 276 273 284 293 282 275 273 268 267 264 261 264 267 271 280
212 260 267 269 268 271 269 271 268 269 271 267 278 292 305 323 328 319 313 311 300 295 298 294 291 299 300 281 263 271 274 282 295 302 279 271 268 264 259 256 260 265 271 267
226 235 234 230 238 258 277 285 279 276 273 274 290 299 293 290 291 296 304 319 330 328 314 299 296 305 307 298 276 271 267 274 284 285 285 280 278 274 265 259 263 269 284 279
252 250 251 253 255 253 264 270 272 278 290 291 287 272 270 273 280 293 313 330 325 316 311 311 313 318 304 299 302 275 269 273 286 290 289 286 288 287 279 272 270 269 272 269
271 275 270 280 295 277 271 275 282 289 293 278 267 284 293 294 292 301 315 306 289 288 298 306 311 307 301 296 302 280 265 266 272 278 279 279 278 277 278 277 271 269 268 263
267 274 280 294 308 307 290 280 270 275 281 267 236 245 263 278 285 293 300 298 300 302 306 310 316 305 300 301 305 296 277 270 271 268 269 274 278 275 274 276 271 265 264 266
266 265 275 293 300 300 300 293 280 274 269 271 266 260 270 281 289 295 278 273 287 303 314 306 303 303 312 313 309 299 295 293 286 281 279 277 277 276 273 272 270 267 261 259
267 271 268 260 260 272 295 299 283 271 266 264 261 258 257 267 267 267 286 290 293 304 317 303 306 312 319 325 317 297 289 290 286 278 274 277 276 275 275 274 273 270 265 260
272 271 270 274 283 282 279 285 287 278 273 278 277 267 258 276 293 288 284 296 308 313 316 307 312 317 328 334 319 306 297 289 282 279 280 281 282 280 276 272 273 272 266 261
264 266 268 255 255 257 257 271 298 306 301 300 306 306 288 262 267 290 305 310 314 322 321 316 319 324 333 327 317 311 305 295 291 290 284 284 283 284 279 271 268 267 264 261
267 261 255 245 247 257 252 234 253 271 278 301 313 320 318 317 307 308 317 317 317 322 324 318 320 323 328 321 314 311 311 310 312 308 297 291 287 281 277 275 274 271 268 266
294 291 291 304 299 278 250 228 237 257 256 259 289 305 312 322 330 333 331 328 325 321 322 323 324 323 321 318 315 314 316 316 315 315 313 304 301 293 284 281 282 281 277 273
Height
1512 1509 1509 1510 1510 1511 1513 1515 1519 1515 1514 1508 1506 1505 1504 1502 1500 1499 1498 1497 1497 1497 1496 1497 1497 1497 1498 1498 1499 1499 1500 1500 1501 1501 1501 1501 1502 1502 1503 1503 1504 1504 1504 1504
1512 1508 1509 1510 1509 1509 1509 1509 1511 1511 1510 1505 1504 1504 1502 1501 1500 1499 1498 1497 1497 1496 1496 1496 1496 1496 1496 1497 1497 1497 1497 1498 1498 1498 1498 1498 1498 1498 1499 1499 1500 1500 1500 1500
1518 1512 1509 1514 1509 1507 1507 1506 1506 1508 1507 1504 1504 1502 1501 1500 1499 1498 1497 1497 1497 1496 1496 1496 1495 1495 1495 1495 1495 1495 1495 1495 1495 1495 1494 1494 1494 1495 1495 1495 1496 1496 1496 1496
1521 1516 1519 1510 1502 1502 1504 1503 1503 1503 1503 1502 1502 1502 1500 1500 1499 1498 1497 1496 1496 1496 1495 1495 1495 1494 1494 1494 1493 1493 1493 1492 1492 1492 1491 1491 1491 1491 1491 1491 1491 1491 1491 1492
1523 1521 1515 1507 1503 1503 1504 1504 1502 1502 1501 1501 1501 1500 1499 1499 1498 1498 1497 1496 1496 1495 1495 1494 1493 1493 1492 1491 1491 1491 1490 1490 1489 1488 1488 1487 1487 1487 1487 1487 1487 1487 1487 1487
1521 1519 1517 1506 1500 1498 1501 1504 1500 1500 1500 1501 1500 1503 1500 1498 1497 1497 1496 1495 1494 1494 1493 1492 1491 1491 1490 1489 1488 1488 1487 1487 1487 1486 1484 1484 1483 1483 1483 1483 1483 1483 1483 1483
1519 1518 1511 1503 1499 1499 1508 1506 1499 1499 1499 1499 1499 1500 1499 1497 1496 1496 1495 1494 1493 1492 1491 1490 1489 1489 1488 1487 1486 1485 1485 1484 1484 1483 1482 1481 1480 1480 1479 1479 1479 1479 1478 1478
1518 1518 1512 1500 1500 1502 1502 1498 1497 1497 1497 1497 1497 1496 1496 1495 1494 1494 1493 1492 1490 1489 1489 1488 1487 1486 1485 1484 1483 1483 1482 1481 1480 1479 1478 1478 1477 1476 1475 1475 1474 1474 1474 1474
1508 1507 1500 1498 1498 1498 1497 1496 1495 1495 1495 1496 1495 1494 1494 1494 1493 1492 1491 1490 1488 1487 1486 1485 1485 1483 1482 1481 1480 1479 1478 1478 1477 1476 1475 1474 1473 1472 1471 1471 1470 1470 1470 1470
1504 1500 1498 1497 1496 1496 1495 1494 1494 1493 1493 1493 1493 1492 1492 1491 1491 1490 1489 1488 1486 1485 1483 1483 1482 1481 1480 1478 1477 1476 1474 1474 1473 1472 1471 1471 1470 1469 1468 1467 1467 1466 1466 1466
1501 1498 1496 1494 1494 1494 1493 1493 1492 1491 1491 1491 1490 1489 1489 1488 1487 1487 1486 1485 1484 1482 1481 1480 1479 1477 1476 1475 1474 1473 1471 1470 1469 1469 1468 1467 1467 1466 1465 1464 1464 1463 1462 1462
1498 1494 1494 1493 1492 1492 1491 1490 1489 1489 1488 1488 1487 1486 1485 1484 1484 1484 1483 1482 1481 1480 1479 1477 1476 1474 1473 1472 1471 1470 1468 1467 1466 1466 1465 1464 1463 1462 1461 1461 1460 1459 1459 1458
1492 1491 1491 1490 1490 1489 1488 1487 1487 1486 1485 1484 1484 1483 1482 1481 1481 1480 1480 1479 1478 1477 1476 1474 1473 1472 1470 1469 1468 1466 1465 1464 1463 1463 1462 1461 1460 1459 1457 1456 1456 1455 1454 1454
1489 1489 1488 1487 1487 1486 1485 1485 1484 1483 1483 1482 1481 1480 1479 1478 1477 1477 1476 1476 1475 1474 1473 1471 1470 1469 1468 1466 1465 1463 1462 1461 1461 1459 1459 1458 1457 1455 1454 1453 1451 1450 1450 1450
1486 1486 1486 1485 1484 1483 1482 1482 1481 1480 1479 1478 1477 1476 1475 1474 1474 1473 1473 1472 1471 1470 1469 1468 1467 1465 1464 1463 1462 1460 1459 1458 1457 1456 1455 1454 1453 1452 1451 1449 1448 1447 1446 1445
1483 1483 1482 1482 1481 1480 1479 1478 1477 1476 1476 1475 1474 1473 1472 1471 1471 1470 1469 1468 1467 1466 1465 1464 1463 1462 1461 1460 1458 1457 1456 1455 1454 1453 1451 1450 1449 1448 1447 1446 1444 1443 1442 1441
1479 1479 1478 1478 1477 1476 1476 1475 1474 1473 1472 1471 1471 1470 1469 1468 1467 1467 1466 1465 1464 1463 1462 1461 1460 1459 1457 1456 1455 1453 1452 1451 1450 1449 1447 1446 1446 1444 1443 1442 1440 1439 1438 1438
1476 1476 1475 1475 1474 1473 1472 1472 1471 1470 1469 1469 1468 1467 1466 1465 1464 1463 1462 1461 1460 1459 1459 1458 1457 1455 1454 1452 1451 1450 1448 1447 1446 1444 1443 1442 1442 1441 1439 1438 1437 1436 1434 1434
1472 1472 1472 1471 1471 1470 1469 1468 1467 1467 1466 1466 1465 1464 1463 1462 1461 1460 1459 1458 1456 1455 1455 1454 1453 1451 1450 1448 1447 1446 1445 1443 1442 1441 1440 1439 1438 1437 1436 1434 1433 1432 1431 1430
1469 1469 1468 1468 1467 1467 1466 1465 1464 1464 1463 1463 1462 1461 1460 1459 1458 1457 1456 1455 1454 1453 1452 1450 1449 1447 1446 1445 1443 1442 1441 1440 1438 1437 1436 1435 1434 1433 1432 1431 1430 1429 1428 1427
1466 1465 1465 1464 1464 1464 1463 1462 1461 1461 1460 1460 1459 1457 1457 1456 1455 1454 1453 1451 1451 1450 1449 1447 1445 1444 1442 1441 1440 1438 1437 1436 1434 1433 1432 1431 1430 1429 1428 1427 1426 1425 1425 1424
1463 1462 1462 1461 1461 1461 1460 1459 1459 1458 1457 1456 1455 1455 1454 1453 1452 1451 1450 1449 1448 1447 1445 1444 1442 1441 1439 1438 1436 1435 1433 1432 1431 1430 1429 1428 1427 1425 1424 1424 1423 1422 1421 1420
1460 1459 1459 1458 1458 1457 1457 1456 1456 1455 1454 1453 1452 1451 1450 1449 1449 1447 1446 1446 1445 1444 1442 1440 1439 1438 1436 1434 1433 1431 1430 1429 1427 1426 1425 1424 1423 1422 1421 1420 1419 1418 1417 1417
1457 1457 1456 1456 1455 1454 1454 1453 1453 1452 1451 1450 1449 1448 1447 1446 1445 1445 1444 1443 1442 1440 1439 1437 1436 1434 1433 1431 1429 1428 1427 1426 1424 1423 1422 1421 1420 1419 1418 1417 1416 1415 1414 1413
1455 1454 1453 1453 1452 1451 1451 1450 1449 1449 1448 1446 1445 1445 1444 1443 1442 1441 1440 1439 1438 1437 1435 1434 1433 1431 1429 1428 1427 1425 1424 1423 1421 1420 1419 1417 1416 1415 1414 1413 1412 1411 1410 1409
1452 1451 1451 1450 1450 1449 1448 1447 1446 1445 1444 1443 1442 1441 1441 1440 1439 1438 1437 1436 1435 1434 1432 1431 1429 1428 1426 1425 1424 1422 1421 1420 1418 1417 1415 1414 1413 1412 1411 1410 1408 1407 1406 1406
1449 1449 1448 1447 1447 1446 1445 1444 1443 1442 1442 1440 1439 1438 1437 1436 1435 1435 1434 1433 1432 1431 1429 1428 1427 1425 1424 1422 1421 1419 1418 1417 1415 1414 1412 1411 1410 1408 1407 1406 1405 1404 1403 1402